This is the latest recevied weather packets stored in our database for station/object DB0MAK-13. If no packets are shown the sender has not sent any weather packets the latest 1 day(s).
| Time | Temp. | Humidity | Pressure | Rain* | Wind** | Luminosity | Snow |
|---|---|---|---|---|---|---|---|
| 1777997644 | 18.33° C | 66% | 1004.1 hPa | 0 mm | 3.58 m/s, 38° | - | - |
| 1777997407 | 18.33° C | 66% | 1004.2 hPa | 0 mm | 3.58 m/s, 36° | - | - |
| 1777997044 | 18.33° C | 66% | 1004.1 hPa | 0 mm | 1.79 m/s, 29° | - | - |
| 1777996987 | 18.33° C | 66% | 1004.2 hPa | 0 mm | 3.58 m/s, 19° | - | - |
| 1777996567 | 18.33° C | 66% | 1004.1 hPa | 0 mm | 4.02 m/s, 44° | - | - |
| 1777996444 | 18.33° C | 68% | 1004.1 hPa | 0 mm | 3.58 m/s, 33° | - | - |
| 1777996147 | 18.33° C | 67% | 1004 hPa | 0 mm | 2.68 m/s, 17° | - | - |
| 1777995844 | 18.33° C | 67% | 1004.2 hPa | 0 mm | 1.34 m/s, 13° | - | - |
| 1777995727 | 18.33° C | 67% | 1004.2 hPa | 0 mm | 1.79 m/s, 339° | - | - |
| 1777995309 | 18.33° C | 66% | 1004.2 hPa | 0 mm | 2.68 m/s, 28° | - | - |
| 1777995244 | 18.33° C | 67% | 1004.2 hPa | 0 mm | 1.79 m/s, 18° | - | - |
| 1777994889 | 18.33° C | 67% | 1004.4 hPa | 0 mm | 1.34 m/s, 20° | - | - |
| 1777994644 | 18.33° C | 67% | 1004.4 hPa | 0 mm | 1.79 m/s, 23° | - | - |
| 1777994469 | 18.33° C | 68% | 1004.5 hPa | 0 mm | 1.79 m/s, 33° | - | - |
| 1777994044 | 18.33° C | 68% | 1004.6 hPa | 0 mm | 1.34 m/s, 24° | - | - |
| 1777993444 | 18.33° C | 66% | 1004.6 hPa | 0 mm | 2.68 m/s, 33° | - | - |
| 1777993209 | 18.33° C | 65% | 1004.6 hPa | 0 mm | 4.92 m/s, 23° | - | - |
| 1777992844 | 18.33° C | 64% | 1004.5 hPa | 0 mm | 3.58 m/s, 49° | - | - |
| 1777992787 | 18.33° C | 64% | 1004.6 hPa | 0 mm | 2.68 m/s, 45° | - | - |
| 1777992367 | 18.89° C | 63% | 1004.7 hPa | 0 mm | 1.79 m/s, 24° | - | - |
| 1777992244 | 18.89° C | 64% | 1004.6 hPa | 0 mm | 1.34 m/s, 21° | - | - |
| 1777991947 | 18.89° C | 62% | 1004.7 hPa | 0 mm | 2.68 m/s, 345° | - | - |
| 1777991644 | 18.89° C | 61% | 1004.6 hPa | 0 mm | 1.34 m/s, 341° | - | - |
| 1777991527 | 18.89° C | 61% | 1004.6 hPa | 0 mm | 1.34 m/s, 331° | - | - |
| 1777991044 | 18.89° C | 61% | 1004.6 hPa | 0 mm | 1.79 m/s, 346° | - | - |
* Rain latest hour (hover to see other rain measurements)
** Current wind speed in m/s (hover to see current wind gust speed)